Wind_Speed
17 17 17 17 16 15 15 13 11 11 9 8 7 4 5 5 4 5 6 8 9 9 9 8 8 7 7 7 8 9 9 9 8 8 8 8 8 8 8 8 8 8 8
16 16 17 17 17 16 15 13 12 11 9 8 7 6 5 5 5 6 6 7 9 10 10 10 10 9 9 8 9 10 10 9 9 9 9 9 9 8 9 9 10 10 10
16 16 17 18 17 16 14 13 12 10 9 8 7 6 6 6 6 6 7 7 8 9 10 10 10 10 9 9 10 10 10 10 10 11 11 10 10 10 10 10 10 11 11
16 16 17 17 16 15 14 13 11 10 9 8 7 7 7 7 6 6 6 7 8 8 9 10 10 10 10 10 10 10 11 11 11 11 12 12 12 12 11 11 11 11 12
16 16 17 17 16 15 14 13 12 11 10 10 9 8 7 7 7 7 7 8 9 9 10 10 10 11 11 11 11 11 11 12 12 12 13 14 14 14 13 13 13 13 13
17 16 16 16 16 15 14 13 12 11 10 10 9 8 8 8 8 8 8 9 9 10 11 11 11 12 12 12 12 12 13 13 14 14 14 15 15 15 15 15 15 15 16
16 15 15 15 15 15 14 14 13 12 10 10 10 9 9 9 9 8 8 9 9 10 10 11 12 13 14 14 14 15 15 15 15 15 16 16 16 17 17 17 17 17 18
15 14 14 15 15 15 14 14 13 12 11 10 10 10 10 10 10 10 10 10 9 10 10 11 12 13 14 14 15 15 16 16 17 17 17 17 17 18 19 19 18 19 19
15 14 14 15 15 15 15 14 12 11 10 10 10 11 11 11 12 11 11 11 10 11 11 11 12 13 14 15 16 17 17 17 17 18 18 19 19 19 19 19 19 20 20
15 15 14 14 15 15 15 14 12 11 10 10 11 11 11 11 12 12 11 11 11 11 11 12 13 13 14 16 17 18 18 18 17 18 18 18 19 20 20 21 21 21 22
15 14 15 15 16 16 15 13 13 12 11 12 12 12 12 12 12 11 11 11 10 11 12 13 13 14 15 15 15 16 17 17 17 17 17 18 19 20 20 21 21 23 24
15 15 15 15 16 16 14 14 13 13 13 13 13 13 12 12 12 11 11 11 11 11 12 12 13 14 15 15 16 16 16 16 17 17 18 19 20 20 21 22 23 24 25
15 14 14 15 16 15 14 14 14 14 14 14 13 13 12 12 12 12 12 12 12 13 13 13 14 15 15 15 15 15 15 16 17 17 18 19 20 20 21 22 23 24 24
15 15 14 14 14 15 15 15 15 15 15 14 14 13 13 12 13 13 13 13 14 14 14 14 15 15 16 16 16 16 17 17 18 18 19 19 20 21 22 23 24 25 24
15 15 15 14 14 15 15 16 15 15 15 15 14 14 14 13 14 14 14 15 15 15 15 15 15 16 16 17 17 17 18 18 18 19 20 20 21 22 23 23 24 25 25
16 16 15 15 15 15 15 16 16 16 15 15 15 15 14 14 14 15 15 15 15 16 16 16 16 16 16 16 16 17 18 18 19 19 20 21 21 22 23 23 24 24 25
17 17 16 16 16 16 16 16 16 17 16 16 16 16 16 16 16 16 16 17 17 17 17 17 17 17 17 17 17 18 19 19 19 20 20 20 21 21 22 23 23 24 25
19 18 18 18 18 17 17 17 17 17 17 17 17 18 18 18 18 18 18 18 18 18 18 18 18 18 18 18 19 19 20 20 20 20 20 20 21 22 22 22 23 23 25
20 19 19 19 19 18 18 18 18 18 19 19 19 20 20 20 20 20 20 20 20 19 19 19 19 19 19 19 20 21 21 21 21 21 22 23 23 23 23 24 24 25 26
21 20 20 20 19 19 20 20 20 20 20 20 21 21 21 22 22 22 22 21 21 21 21 20 19 20 20 21 21 21 22 22 22 23 24 24 24 25 25 25 25 25 26
23 22 22 22 21 21 21 21 22 22 22 22 23 23 23 23 23 23 22 22 22 22 22 22 21 21 21 22 22 23 23 23 24 24 25 25 25 25 26 26 27 27 28
26 25 25 24 24 23 23 23 23 24 24 24 24 25 25 25 25 24 23 23 23 24 23 23 23 23 23 23 24 24 25 25 25 25 25 26 26 27 27 27 27 27 28
29 28 27 27 26 26 26 26 27 27 26 26 26 26 26 27 27 26 25 25 25 25 25 25 25 26 26 26 25 26 26 26 26 27 27 27 27 28 29 29 28 28 28
31 30 29 29 29 28 28 29 29 29 29 29 29 29 29 28 28 27 27 27 26 26 26 26 27 27 27 27 27 27 28 28 29 28 28 29 29 29 29 29 29 29 29
33 32 31 31 31 31 31 31 32 32 32 32 31 31 30 30 30 29 29 29 28 28 28 29 28 27 27 27 27 28 29 29 29 29 29 29 29 29 30 29 30 30 30
34 34 34 33 33 33 33 33 34 34 34 34 33 33 32 32 31 31 31 31 30 30 30 30 29 29 28 29 29 29 29 29 29 30 30 29 30 30 30 30 30 30 31
Wind_Direction
341 345 346 347 346 345 346 343 339 343 343 341 336 331 313 313 290 271 260 249 244 242 243 250 255 257 258 260 260 258 257 259 265 270 271 271 273 277 279 280 282 283 286
335 340 341 343 345 343 342 339 338 336 340 342 343 339 323 307 294 280 269 255 251 249 244 253 256 258 264 266 263 262 262 263 265 268 271 274 275 275 282 281 284 285 287
330 336 337 339 343 342 340 338 337 337 338 339 340 336 328 316 303 289 280 269 259 256 247 249 255 259 265 267 264 264 263 265 268 267 267 269 275 280 283 284 286 288 285
323 332 333 336 339 339 338 338 335 332 331 333 331 327 323 316 297 290 282 274 266 260 250 250 257 260 265 267 267 268 267 267 271 271 270 268 269 274 279 284 287 289 286
323 330 331 333 334 335 335 331 328 325 321 324 324 322 318 313 297 285 283 276 268 264 260 258 258 262 262 266 269 271 268 269 271 273 273 273 272 273 276 280 283 285 285
325 326 330 334 335 334 332 330 325 323 320 320 322 324 321 316 305 289 284 280 275 270 266 262 261 261 264 268 270 270 272 272 273 273 273 273 274 275 277 277 278 280 282
323 325 329 335 338 336 334 332 327 322 319 318 320 318 317 315 308 297 291 290 286 279 274 266 265 264 265 267 269 271 271 273 274 275 274 274 274 277 279 278 278 279 281
318 323 328 332 335 336 335 335 329 325 319 317 320 318 316 314 309 304 299 295 290 287 283 277 272 268 266 268 269 272 273 273 276 276 275 276 277 278 280 280 281 282 282
319 327 327 331 334 336 333 333 332 327 322 319 320 320 318 316 312 308 301 295 293 291 289 284 282 277 276 274 272 271 272 274 276 277 275 276 276 279 282 282 282 284 285
318 323 329 331 333 333 331 330 329 326 324 320 318 319 317 317 317 312 302 295 291 293 291 289 287 285 284 280 277 273 274 275 276 277 278 278 278 280 282 285 284 284 286
313 315 324 327 330 333 332 331 329 327 324 321 321 319 317 316 314 314 309 302 296 295 296 293 291 287 287 288 285 282 277 276 278 281 283 284 281 280 282 284 284 286 287
311 315 321 322 325 329 330 331 329 327 325 323 319 316 316 316 316 315 312 306 303 301 299 297 294 290 287 285 285 282 278 278 280 283 284 284 283 283 284 286 287 287 288
306 310 316 322 325 327 329 330 327 325 324 322 319 317 317 318 318 317 315 312 308 306 307 302 299 295 291 288 285 286 285 284 285 286 286 285 285 285 287 288 288 288 288
299 304 310 318 322 325 328 330 329 327 326 325 324 321 321 319 318 316 314 313 311 309 307 306 303 299 295 291 287 287 289 289 288 289 289 288 288 288 288 289 290 290 290
295 297 303 311 317 321 324 326 327 326 327 327 327 326 323 319 316 316 314 312 311 310 309 307 305 302 300 295 291 289 289 291 290 290 290 289 291 292 293 292 292 290 291
290 293 297 303 310 315 319 322 322 324 324 324 325 325 322 320 318 317 317 315 312 310 308 307 307 306 304 301 299 296 294 293 293 293 292 289 289 291 293 294 293 294 294
285 289 292 297 303 307 312 317 318 319 320 319 320 320 320 319 318 317 315 313 310 309 309 307 306 304 303 302 299 297 297 297 298 297 296 295 292 293 293 295 296 296 297
281 284 288 292 297 301 305 309 312 314 316 316 316 315 316 316 316 315 314 311 309 306 304 305 305 304 303 303 302 300 298 297 298 298 297 297 296 296 295 296 298 298 299
280 282 283 287 290 295 299 303 306 309 312 313 313 313 312 312 313 313 312 310 309 307 304 303 303 303 303 302 302 300 298 297 297 298 298 297 297 298 297 298 299 299 299
275 279 281 283 286 289 294 297 299 303 307 309 310 311 310 310 310 310 310 309 309 309 307 305 303 303 302 301 300 300 299 299 299 299 299 299 298 298 298 298 298 299 300
271 274 278 281 283 286 290 293 295 298 301 303 306 307 309 309 309 308 307 308 309 308 307 306 303 302 301 301 300 301 300 300 300 299 299 298 298 298 298 299 299 299 299
269 271 275 278 280 282 285 288 290 293 296 299 301 302 304 307 307 307 306 306 307 307 307 305 304 302 301 300 299 298 298 298 298 298 298 298 298 298 298 299 300 301 300
267 270 273 275 277 279 281 283 286 289 292 295 297 298 300 303 306 306 304 304 305 305 304 303 303 303 301 299 298 297 296 295 297 298 298 299 299 299 298 298 299 300 300
266 268 270 272 274 276 278 281 283 286 289 292 293 295 296 299 302 303 303 302 304 304 302 302 302 301 299 297 296 296 296 295 296 297 298 299 299 299 299 299 300 300 300
264 266 269 271 273 274 276 279 281 283 286 288 290 291 292 294 297 299 300 300 301 302 301 300 300 298 297 297 297 296 296 296 296 297 298 298 298 297 297 298 299 300 300
263 265 267 270 272 274 276 278 279 281 283 285 288 289 290 291 293 294 296 298 299 299 300 299 297 296 295 295 296 296 296 296 296 297 298 298 298 297 297 297 298 298 298
Height
5913 5911 5909 5907 5904 5902 5900 5899 5898 5896 5895 5894 5893 5893 5893 5893 5893 5894 5894 5894 5895 5897 5898 5899 5900 5901 5901 5902 5902 5902 5903 5903 5904 5905 5905 5905 5904 5904 5904 5904 5904 5904 5904
5912 5910 5908 5906 5904 5902 5900 5898 5897 5896 5895 5894 5892 5892 5892 5892 5892 5893 5893 5893 5894 5894 5896 5897 5898 5899 5900 5900 5900 5900 5901 5902 5902 5903 5903 5903 5903 5902 5903 5902 5901 5902 5901
5911 5910 5907 5905 5903 5901 5899 5897 5896 5895 5894 5894 5893 5892 5892 5891 5891 5891 5892 5892 5892 5893 5894 5895 5896 5897 5898 5898 5898 5899 5899 5899 5900 5900 5901 5901 5901 5901 5901 5900 5900 5900 5899
5909 5908 5906 5905 5902 5900 5899 5897 5895 5895 5894 5893 5892 5892 5891 5891 5890 5890 5890 5891 5891 5891 5892 5893 5894 5895 5896 5896 5896 5897 5897 5897 5897 5898 5898 5899 5899 5899 5899 5898 5898 5897 5896
5908 5907 5905 5903 5901 5900 5898 5896 5895 5894 5893 5893 5892 5891 5890 5890 5889 5889 5889 5889 5889 5890 5890 5891 5892 5893 5893 5894 5894 5894 5894 5895 5895 5895 5895 5896 5896 5896 5896 5896 5895 5894 5894
5908 5906 5905 5902 5900 5899 5897 5896 5894 5893 5892 5891 5891 5890 5889 5889 5888 5887 5887 5887 5887 5888 5888 5889 5889 5890 5891 5891 5891 5891 5892 5892 5892 5892 5892 5892 5892 5892 5892 5892 5892 5891 5890
5907 5905 5903 5901 5899 5898 5896 5895 5893 5892 5891 5891 5890 5889 5888 5887 5887 5886 5886 5886 5886 5886 5886 5886 5887 5887 5888 5888 5888 5888 5888 5888 5888 5889 5888 5888 5888 5888 5888 5888 5888 5887 5887
5906 5904 5903 5901 5899 5897 5895 5894 5892 5891 5890 5890 5889 5888 5887 5886 5885 5885 5884 5884 5884 5883 5883 5883 5884 5884 5885 5885 5885 5885 5885 5885 5884 5884 5884 5884 5884 5884 5884 5884 5884 5883 5882
5903 5902 5901 5900 5898 5896 5894 5893 5891 5890 5889 5889 5888 5887 5885 5884 5883 5883 5882 5882 5882 5881 5881 5881 5881 5881 5881 5881 5881 5881 5881 5881 5881 5880 5880 5880 5880 5880 5880 5879 5879 5879 5878
5903 5902 5901 5899 5897 5895 5893 5891 5890 5889 5888 5887 5886 5885 5884 5883 5882 5881 5880 5880 5879 5879 5879 5879 5878 5878 5878 5877 5877 5877 5877 5877 5877 5876 5876 5876 5876 5876 5875 5875 5874 5874 5873
5901 5900 5899 5898 5896 5894 5892 5891 5889 5888 5887 5886 5885 5884 5882 5881 5880 5879 5878 5878 5877 5877 5876 5876 5875 5875 5874 5874 5873 5873 5873 5873 5872 5872 5871 5871 5871 5871 5870 5870 5869 5868 5867
5901 5898 5898 5896 5895 5893 5891 5890 5889 5887 5886 5885 5884 5882 5880 5879 5878 5877 5877 5876 5875 5874 5873 5873 5872 5872 5871 5870 5870 5869 5869 5869 5868 5868 5867 5867 5866 5866 5865 5865 5864 5862 5861
5899 5898 5897 5895 5893 5892 5891 5889 5887 5886 5885 5884 5882 5880 5879 5878 5876 5875 5875 5874 5873 5872 5870 5870 5869 5868 5867 5867 5866 5865 5865 5864 5864 5863 5863 5862 5862 5861 5860 5859 5858 5857 5856
5897 5896 5895 5894 5892 5891 5890 5888 5886 5885 5883 5882 5880 5879 5877 5876 5875 5873 5873 5872 5870 5869 5868 5867 5866 5865 5864 5863 5862 5862 5861 5860 5860 5859 5858 5857 5857 5856 5855 5853 5852 5851 5850
5895 5894 5893 5892 5891 5890 5888 5887 5885 5884 5882 5880 5879 5877 5875 5874 5873 5872 5870 5869 5868 5866 5865 5864 5863 5861 5860 5859 5858 5858 5857 5856 5855 5854 5853 5853 5851 5850 5849 5847 5846 5845 5843
5892 5892 5891 5890 5889 5888 5887 5885 5883 5882 5880 5879 5877 5875 5874 5872 5871 5869 5868 5867 5865 5864 5862 5861 5860 5858 5857 5855 5854 5853 5852 5851 5850 5849 5848 5847 5846 5844 5843 5842 5840 5839 5837
5889 5889 5888 5888 5887 5886 5884 5883 5881 5880 5878 5877 5875 5873 5872 5871 5869 5867 5865 5864 5862 5861 5859 5858 5856 5855 5853 5852 5851 5849 5848 5847 5846 5844 5843 5842 5840 5839 5838 5836 5834 5833 5831
5885 5885 5885 5885 5884 5883 5882 5880 5879 5878 5876 5875 5873 5871 5870 5868 5866 5864 5862 5861 5859 5857 5856 5854 5853 5851 5849 5848 5847 5845 5844 5843 5841 5840 5838 5837 5835 5834 5832 5830 5829 5827 5825
5881 5881 5881 5881 5880 5879 5878 5877 5876 5875 5873 5872 5870 5868 5866 5864 5863 5861 5859 5857 5855 5853 5852 5850 5849 5847 5845 5844 5843 5841 5840 5838 5837 5835 5833 5832 5830 5828 5826 5825 5823 5821 5819
5877 5877 5877 5876 5876 5876 5875 5874 5872 5871 5870 5868 5867 5865 5863 5861 5859 5857 5855 5853 5851 5850 5848 5846 5844 5843 5841 5839 5838 5836 5835 5833 5832 5830 5828 5826 5824 5822 5820 5819 5817 5814 5812
5872 5872 5872 5872 5872 5871 5870 5869 5868 5867 5866 5864 5863 5861 5858 5856 5854 5852 5850 5848 5847 5845 5843 5841 5840 5838 5836 5834 5833 5831 5829 5828 5826 5824 5822 5820 5818 5816 5814 5812 5810 5807 5805
5866 5866 5867 5867 5866 5866 5865 5864 5863 5862 5861 5860 5858 5856 5854 5852 5849 5847 5845 5843 5842 5840 5838 5836 5835 5833 5831 5829 5827 5825 5824 5822 5820 5818 5816 5814 5812 5810 5807 5805 5802 5800 5798
5860 5860 5861 5861 5860 5860 5859 5859 5858 5857 5855 5854 5852 5850 5848 5846 5844 5842 5840 5838 5836 5834 5833 5831 5829 5827 5825 5823 5821 5819 5817 5815 5813 5811 5809 5807 5805 5803 5800 5798 5795 5793 5790
5853 5853 5854 5854 5854 5853 5852 5852 5851 5850 5849 5848 5846 5844 5842 5840 5839 5837 5835 5832 5830 5828 5826 5825 5823 5820 5818 5816 5814 5812 5810 5808 5806 5804 5802 5800 5798 5795 5793 5790 5788 5785 5783
5845 5846 5846 5846 5846 5845 5845 5845 5844 5843 5842 5840 5839 5837 5835 5834 5832 5830 5828 5826 5824 5822 5820 5818 5816 5813 5811 5809 5807 5805 5803 5801 5799 5797 5795 5793 5790 5788 5785 5783 5780 5778 5775
5836 5837 5837 5838 5838 5838 5837 5836 5836 5835 5834 5833 5831 5830 5828 5826 5824 5823 5821 5818 5817 5814 5812 5810 5808 5806 5804 5802 5800 5798 5796 5793 5792 5789 5787 5785 5782 5780 5777 5775 5772 5770 5767